Probability
0 0 0 0 0 0 0 3 3 3 10 6 3 13 29 45 45 48 48 45 45 35 32 52 48 52 52 55 52 52 52 52 42 39 39 35 26 19 13 13 13 10 10 13
0 0 0 0 3 0 0 0 3 3 10 10 6 10 16 39 39 42 48 42 42 32 32 42 45 45 45 45 52 52 48 39 39 32 35 29 23 13 10 13 13 10 13 13
0 0 0 0 3 0 0 0 3 3 10 10 10 6 16 23 39 42 39 45 48 39 39 42 42 39 39 42 45 35 39 39 32 29 26 16 19 6 13 16 16 16 10 10
0 0 0 0 0 3 0 0 0 0 3 0 3 0 6 16 35 39 45 45 48 39 45 35 35 39 39 42 39 35 35 35 29 26 23 19 16 10 16 16 16 13 6 6
0 0 0 0 0 0 3 0 0 0 0 0 0 0 10 13 23 32 35 35 42 29 39 35 39 35 32 32 35 32 32 26 23 19 29 29 23 16 13 16 16 13 6 10
0 0 0 0 0 0 0 0 0 0 0 0 0 0 0 6 16 23 32 35 35 32 32 35 32 32 32 32 23 23 23 29 23 23 26 26 23 19 10 10 6 3 6 6
0 0 0 0 0 0 0 0 0 0 0 0 0 0 3 10 10 19 26 29 19 26 32 29 29 29 29 29 26 26 26 16 16 16 16 23 16 16 16 13 13 6 6 10
0 0 0 0 0 0 0 0 0 0 0 0 0 0 6 10 10 19 29 23 19 26 26 26 26 26 26 26 26 26 23 23 19 13 13 10 13 16 13 13 6 6 6 6
0 0 0 0 0 0 0 0 0 0 0 0 0 0 10 10 10 16 23 16 23 32 32 26 26 29 26 26 23 23 19 16 13 13 10 10 10 10 13 13 6 6 6 6
0 0 0 0 0 0 0 0 0 0 0 0 0 0 0 16 13 23 10 16 23 35 29 26 23 29 23 19 23 19 13 13 6 6 6 3 10 10 6 6 6 6 6 6
0 0 0 0 0 0 0 0 0 0 0 0 0 0 0 23 29 26 19 16 19 26 26 23 23 26 23 19 13 13 10 6 6 3 3 3 3 3 3 6 6 6 6 6
0 0 0 0 0 0 0 0 0 0 0 0 0 0 10 19 26 19 19 13 13 23 23 23 23 19 23 13 6 6 6 3 3 3 3 3 3 3 6 6 6 6 3 3
0 0 0 0 0 0 0 0 0 0 0 0 0 0 6 10 19 16 16 6 10 13 16 19 19 16 10 3 3 3 6 3 3 3 3 3 3 3 3 3 3 3 3 3
0 0 0 0 0 0 0 0 0 0 0 0 0 0 10 13 16 16 16 6 6 13 16 13 16 13 10 6 3 3 3 3 3 3 3 3 3 3 6 6 6 6 6 3
0 0 0 0 0 0 0 0 0 0 0 0 0 0 3 13 13 19 3 3 10 6 6 13 10 13 10 6 3 0 3 3 3 3 3 3 3 3 3 3 3 6 3 0
0 0 0 0 0 0 0 0 0 0 0 0 0 0 6 13 13 10 3 3 10 6 10 13 10 6 10 6 3 3 0 3 3 3 3 3 3 3 3 3 3 3 3 0
0 0 0 0 0 0 0 0 0 0 0 0 0 0 13 19 16 10 6 3 3 10 6 10 6 6 6 6 3 3 0 0 3 3 3 3 0 0 0 0 0 0 0 0
0 0 0 0 0 0 0 0 0 0 0 0 0 6 13 16 16 13 6 3 3 10 6 6 3 6 3 6 3 3 3 0 3 3 3 0 0 0 0 0 0 0 0 0
3 0 0 0 0 0 0 0 0 0 0 0 0 6 13 13 10 10 6 6 6 10 6 0 6 0 0 3 3 3 0 0 0 3 0 0 0 0 0 0 0 0 0 0
3 6 0 0 0 0 0 0 0 0 0 0 0 10 19 13 10 10 13 16 10 13 10 3 3 0 0 3 3 0 0 0 0 0 0 0 0 0 0 0 0 0 0 0
0 0 0 0 0 0 0 0 0 0 0 6 10 16 23 13 3 29 19 16 16 13 6 0 0 0 0 0 0 0 0 0 0 0 0 0 0 0 0 0 0 0 0 0
0 0 0 0 0 0 0 0 0 6 16 13 16 19 19 16 23 16 16 16 16 3 3 0 0 0 0 0 0 0 0 0 0 0 0 0 0 0 0 0 0 0 0 0
0 0 0 0 0 6 3 3 13 6 10 10 16 13 23 13 16 16 13 13 10 3 3 3 0 0 3 0 0 0 0 0 0 0 0 0 0 0 0 0 0 0 0 0
0 3 0 0 0 0 0 0 3 3 10 6 16 16 13 10 13 13 13 10 6 3 6 0 0 0 0 0 0 3 3 0 0 0 0 0 0 0 0 0 0 0 0 0
0 3 0 0 0 0 3 3 3 3 0 3 6 10 6 10 10 10 6 10 3 6 3 0 0 0 0 0 0 0 0 0 0 0 0 0 0 0 0 0 0 0 0 0
3 3 0 0 0 0 6 3 6 0 0 6 3 6 6 6 6 6 6 6 6 3 3 3 3 0 0 0 0 0 0 0 0 0 0 0 0 0 0 0 0 0 0 0
Height
5843 5846 5848 5849 5851 5852 5854 5855 5856 5857 5857 5859 5860 5860 5861 5861 5861 5861 5861 5861 5861 5861 5860 5859 5858 5857 5856 5855 5853 5852 5851 5850 5848 5846 5845 5843 5842 5840 5838 5836 5834 5832 5830 5828
5843 5845 5846 5846 5848 5849 5851 5852 5852 5853 5854 5855 5856 5856 5857 5857 5857 5857 5857 5857 5857 5857 5856 5855 5854 5853 5852 5850 5849 5847 5845 5844 5843 5841 5839 5838 5836 5833 5832 5829 5827 5826 5824 5822
5842 5844 5843 5845 5846 5847 5848 5849 5849 5850 5850 5851 5852 5853 5853 5852 5852 5852 5853 5853 5853 5852 5852 5851 5850 5849 5848 5846 5844 5842 5841 5839 5837 5836 5834 5832 5830 5828 5825 5823 5821 5819 5817 5815
5840 5841 5842 5842 5843 5844 5845 5845 5846 5846 5847 5848 5849 5850 5849 5848 5848 5848 5848 5848 5848 5848 5847 5846 5846 5844 5843 5841 5839 5837 5836 5834 5832 5830 5829 5827 5824 5822 5819 5817 5815 5813 5810 5808
5838 5839 5839 5840 5841 5841 5842 5842 5842 5843 5844 5845 5845 5846 5846 5844 5844 5843 5843 5843 5843 5842 5842 5841 5841 5840 5838 5836 5834 5832 5831 5829 5827 5825 5823 5821 5818 5816 5813 5811 5809 5807 5804 5801
5836 5836 5836 5837 5837 5838 5838 5839 5839 5840 5841 5842 5842 5842 5842 5841 5840 5840 5839 5838 5838 5838 5837 5837 5836 5834 5833 5831 5829 5827 5825 5823 5822 5819 5818 5815 5813 5810 5807 5805 5802 5800 5797 5794
5833 5833 5833 5833 5834 5834 5835 5837 5838 5838 5838 5839 5838 5837 5838 5836 5836 5835 5835 5834 5834 5833 5832 5832 5831 5830 5828 5825 5824 5822 5820 5818 5816 5814 5812 5809 5807 5804 5802 5799 5796 5793 5790 5787
5831 5831 5830 5830 5830 5831 5832 5833 5835 5836 5836 5836 5834 5833 5834 5832 5831 5831 5830 5830 5829 5828 5828 5827 5826 5824 5823 5821 5819 5817 5815 5813 5811 5809 5806 5804 5801 5798 5796 5793 5790 5787 5784 5781
5827 5828 5827 5827 5827 5828 5828 5829 5830 5831 5831 5831 5830 5830 5829 5827 5827 5826 5826 5825 5824 5824 5823 5822 5820 5819 5817 5815 5814 5812 5810 5808 5806 5804 5801 5798 5796 5793 5790 5786 5784 5781 5777 5774
5824 5824 5824 5823 5824 5824 5825 5825 5826 5826 5826 5827 5827 5826 5826 5823 5822 5821 5821 5820 5819 5818 5818 5816 5815 5814 5812 5811 5809 5807 5805 5803 5801 5798 5796 5793 5790 5787 5784 5781 5778 5775 5772 5768
5821 5821 5821 5820 5820 5821 5821 5821 5821 5822 5822 5822 5822 5825 5820 5819 5818 5817 5816 5815 5814 5813 5812 5811 5810 5809 5808 5806 5804 5802 5800 5798 5796 5794 5791 5788 5785 5782 5779 5776 5773 5770 5767 5764
5818 5818 5818 5817 5817 5816 5816 5816 5817 5818 5817 5817 5817 5820 5815 5814 5813 5812 5811 5810 5809 5808 5807 5806 5805 5804 5802 5801 5799 5797 5795 5793 5791 5789 5786 5783 5780 5777 5774 5771 5768 5765 5762 5759
5814 5815 5815 5815 5815 5813 5812 5812 5812 5812 5812 5812 5812 5815 5809 5809 5808 5807 5806 5805 5804 5803 5802 5801 5800 5799 5797 5796 5794 5792 5791 5789 5787 5784 5781 5778 5776 5773 5769 5766 5763 5761 5758 5755
5811 5811 5812 5812 5811 5809 5808 5807 5807 5807 5807 5807 5807 5807 5805 5803 5803 5802 5801 5800 5799 5798 5797 5797 5796 5794 5793 5791 5790 5788 5786 5784 5782 5780 5777 5774 5772 5769 5766 5763 5760 5757 5754 5751
5808 5808 5807 5806 5805 5805 5804 5803 5803 5802 5802 5802 5802 5801 5800 5799 5797 5797 5796 5795 5794 5793 5792 5792 5791 5790 5789 5787 5786 5784 5783 5780 5778 5776 5773 5771 5768 5765 5762 5759 5756 5753 5750 5746
5803 5803 5803 5802 5801 5800 5799 5799 5798 5798 5797 5797 5796 5795 5794 5793 5792 5791 5791 5790 5789 5788 5788 5787 5787 5786 5784 5783 5782 5781 5779 5777 5774 5772 5770 5767 5765 5762 5759 5756 5752 5749 5746 5743
5799 5799 5798 5798 5797 5796 5796 5795 5794 5793 5793 5792 5791 5791 5789 5788 5787 5786 5786 5785 5784 5784 5784 5783 5783 5782 5781 5780 5779 5777 5775 5773 5771 5769 5767 5764 5761 5758 5755 5752 5749 5746 5743 5740
5795 5795 5794 5793 5793 5792 5794 5791 5790 5789 5789 5788 5787 5786 5785 5784 5782 5782 5781 5780 5780 5780 5779 5779 5778 5778 5777 5776 5775 5774 5772 5770 5768 5766 5764 5761 5758 5756 5753 5750 5747 5744 5741 5738
5791 5791 5790 5790 5789 5788 5788 5787 5785 5785 5784 5783 5783 5782 5780 5779 5778 5777 5777 5776 5776 5775 5775 5775 5775 5774 5773 5773 5772 5771 5769 5768 5766 5763 5761 5758 5756 5754 5751 5748 5745 5742 5739 5736
5787 5786 5786 5785 5784 5784 5785 5783 5781 5782 5780 5780 5778 5777 5776 5775 5775 5775 5773 5772 5772 5772 5771 5771 5771 5771 5770 5770 5769 5768 5767 5765 5763 5761 5758 5756 5754 5752 5749 5746 5743 5741 5737 5734
5783 5782 5782 5781 5780 5780 5780 5778 5778 5778 5778 5776 5774 5774 5773 5772 5772 5771 5770 5769 5769 5769 5769 5769 5769 5768 5768 5767 5767 5766 5764 5763 5761 5759 5757 5755 5753 5750 5748 5745 5742 5739 5736 5733
5778 5778 5777 5777 5776 5778 5775 5774 5774 5774 5772 5771 5770 5770 5770 5769 5769 5768 5767 5767 5767 5767 5767 5767 5766 5766 5766 5765 5764 5763 5762 5760 5759 5757 5755 5753 5751 5749 5746 5744 5741 5738 5735 5732
5772 5773 5773 5773 5774 5772 5770 5769 5769 5768 5768 5767 5767 5767 5767 5766 5766 5766 5765 5765 5765 5765 5765 5765 5765 5764 5764 5763 5763 5762 5760 5759 5757 5755 5754 5752 5750 5747 5745 5742 5740 5737 5734 5731
5768 5768 5768 5768 5768 5767 5766 5765 5765 5764 5764 5764 5764 5764 5764 5764 5764 5764 5764 5764 5764 5763 5763 5763 5763 5762 5762 5762 5761 5760 5759 5757 5756 5754 5752 5750 5748 5746 5744 5741 5739 5736 5733 5730
5763 5764 5764 5764 5764 5763 5763 5762 5762 5761 5761 5761 5761 5761 5761 5761 5761 5762 5762 5762 5762 5762 5762 5762 5762 5761 5761 5760 5760 5759 5758 5756 5755 5753 5751 5749 5747 5745 5743 5741 5738 5735 5732 5729
5758 5759 5760 5760 5760 5760 5759 5759 5759 5759 5759 5759 5759 5759 5759 5759 5759 5760 5760 5761 5761 5761 5761 5761 5760 5760 5760 5759 5759 5758 5757 5755 5754 5752 5751 5749 5747 5745 5742 5740 5737 5734 5732 5729
Wind_Speed
10 10 11 12 13 15 15 16 16 18 18 18 18 19 19 18 18 19 18 18 18 18 19 19 20 21 21 22 21 21 21 21 22 23 23 24 25 25 26 26 27 27 28 28
9 10 11 12 12 13 14 15 16 17 18 18 18 18 19 18 18 19 19 18 18 19 19 19 20 21 21 21 22 22 22 23 22 23 24 25 25 26 27 27 27 27 28 28
10 11 11 11 12 13 14 14 15 17 18 18 18 18 18 19 19 19 19 19 18 19 20 21 20 20 20 21 22 21 21 21 22 22 24 24 24 26 27 26 26 27 27 28
10 11 12 13 13 13 14 15 16 17 16 17 17 18 18 19 19 18 18 18 18 19 20 20 19 20 21 22 21 21 21 22 22 23 24 24 25 25 26 26 26 27 27 27
10 11 12 14 14 14 15 15 16 17 17 18 18 17 16 17 18 18 18 18 18 18 20 19 19 20 21 22 22 22 23 23 23 23 24 24 24 24 25 26 26 27 28 28
11 12 13 14 15 15 15 15 16 17 17 17 17 17 15 16 17 17 18 19 19 19 20 20 21 21 22 22 23 23 23 24 24 23 24 23 23 24 25 26 27 27 27 28
11 12 13 14 14 15 14 13 13 13 14 15 15 17 16 17 16 16 17 19 19 20 20 21 21 21 22 23 23 23 23 23 22 22 23 23 23 24 25 25 26 26 27 28
12 13 13 13 13 14 14 13 13 14 14 13 16 16 16 17 17 17 17 18 19 19 20 21 21 21 22 22 22 23 22 22 22 23 23 23 24 24 24 25 25 26 27 28
10 11 12 13 13 14 13 13 14 15 15 15 15 16 17 16 17 17 17 17 18 18 19 20 20 21 21 21 21 22 22 22 22 23 23 23 23 23 24 25 26 26 26 26
10 12 12 12 12 13 14 14 14 13 14 15 16 16 16 16 16 16 16 17 17 18 19 19 19 20 20 21 21 21 21 21 22 23 22 21 21 22 23 23 22 23 23 22
11 11 11 12 12 13 15 15 15 14 15 14 15 16 17 17 17 17 17 18 18 18 18 19 19 20 20 21 21 21 20 19 20 21 21 21 21 21 21 21 21 21 20 21
11 11 11 12 12 13 14 14 15 15 16 16 16 17 18 17 18 18 17 17 18 17 18 18 18 19 19 20 20 20 19 18 19 19 20 20 19 20 20 20 19 19 20 20
12 12 11 12 12 12 13 14 15 16 16 16 16 18 19 18 18 17 17 17 17 17 17 17 17 18 18 18 18 17 17 18 19 19 19 18 18 19 19 18 19 19 19 20
12 12 12 13 13 13 14 14 15 15 16 17 17 18 19 19 18 17 17 17 16 16 17 17 17 16 16 16 16 16 16 17 17 17 17 17 18 18 18 18 19 19 19 19
13 14 14 14 14 14 14 14 14 15 16 17 18 19 19 19 19 18 17 17 17 17 16 16 15 15 15 15 15 15 15 15 15 15 16 16 17 17 17 18 18 18 18 18
14 14 15 15 15 14 15 14 14 15 16 17 17 17 18 18 18 17 17 17 16 15 14 14 14 14 13 13 13 14 14 13 13 14 15 16 16 16 16 16 17 17 17 17
14 15 15 15 15 15 14 13 14 14 14 15 16 16 16 16 15 15 15 16 15 14 13 13 13 12 12 12 12 13 13 12 13 13 14 14 14 15 15 16 16 17 17 17
15 14 15 15 15 15 14 14 14 14 13 14 14 14 14 14 14 13 14 14 13 12 12 12 11 11 12 12 11 11 11 12 12 13 13 13 13 14 15 15 15 16 16 16
16 15 15 15 16 15 14 14 13 13 13 13 13 13 13 13 12 12 12 12 11 11 10 10 10 10 10 10 10 10 11 11 12 11 12 12 12 13 14 14 14 14 15 15
16 16 16 16 16 15 14 13 13 13 13 12 12 11 11 11 10 10 10 9 9 9 8 7 7 7 7 8 9 10 10 11 11 11 11 11 11 12 12 13 13 13 14 14
15 16 16 16 16 15 14 14 13 12 12 12 11 10 9 8 8 8 8 7 7 7 6 5 6 6 6 8 9 9 9 9 10 10 10 10 11 11 12 13 13 13 13 14
16 16 16 15 15 15 14 14 13 13 13 12 10 9 8 8 7 6 6 6 6 5 5 5 5 5 6 7 7 8 8 9 9 9 9 9 10 11 11 12 12 13 13 14
16 15 15 14 13 13 14 14 13 12 11 10 9 8 8 8 7 6 6 6 5 5 5 5 5 5 5 5 6 7 7 8 8 8 8 9 9 10 11 12 12 13 13 14
16 15 14 13 12 12 12 12 12 10 9 9 9 9 8 6 6 5 5 5 4 4 4 4 4 4 4 4 4 5 6 7 7 7 8 8 9 10 11 11 12 12 13 13
16 14 14 13 12 11 10 11 10 8 8 7 7 7 6 6 5 5 4 4 4 4 4 3 3 2 3 4 4 5 6 7 7 7 7 8 8 9 10 11 12 12 13 13
15 14 13 13 11 11 10 9 8 7 7 6 6 6 6 6 5 5 4 3 4 4 3 2 2 2 3 3 4 5 5 6 6 7 8 8 9 9 9 10 11 13 13 14
Wind_Direction
219 219 221 224 226 230 236 243 247 251 255 258 261 263 266 265 265 266 267 269 271 272 274 275 274 276 281 283 283 283 285 286 287 287 288 288 288 287 287 288 287 285 286 286
221 224 227 232 234 236 242 248 251 253 255 258 261 264 268 267 267 265 265 267 271 272 273 274 277 280 284 283 282 281 283 285 288 290 290 289 287 288 287 287 287 288 287 286
224 230 231 235 239 244 246 249 250 252 255 260 265 268 270 269 268 268 267 268 270 271 271 272 277 281 284 285 283 282 284 286 288 290 291 290 289 290 288 286 285 286 286 287
235 236 239 240 242 246 248 252 254 255 258 263 269 274 272 269 267 268 267 269 269 270 275 275 276 281 285 288 286 285 285 287 288 289 288 289 291 292 290 286 284 286 287 288
248 247 247 245 243 243 247 252 253 257 260 263 270 270 267 270 269 269 266 266 269 273 276 277 276 281 285 287 285 285 285 287 288 288 288 289 290 291 291 288 288 287 287 288
254 258 255 252 246 245 251 254 257 258 262 264 268 269 270 270 270 268 266 268 271 273 275 276 278 280 285 285 286 287 286 286 286 286 287 290 292 292 292 291 290 290 291 291
263 264 264 258 252 253 254 255 262 265 265 270 272 272 271 271 272 269 268 269 271 274 276 278 278 280 283 284 286 288 289 288 287 287 288 293 294 294 293 292 292 293 293 293
261 266 265 263 258 256 257 254 258 261 267 269 272 275 273 274 273 272 272 273 272 274 278 279 278 280 283 285 288 289 291 291 292 293 293 294 294 293 292 292 293 294 294 294
260 263 265 262 258 256 256 256 257 262 265 267 269 272 275 276 277 275 274 274 273 274 276 278 279 280 283 286 289 290 290 290 294 295 295 296 295 295 294 293 294 295 297 296
263 267 266 263 257 255 254 257 261 261 263 267 275 279 278 281 280 279 275 275 274 274 273 275 278 280 283 286 288 290 291 291 294 296 296 298 298 298 298 298 298 300 301 301
266 270 273 270 263 262 260 258 260 261 261 265 273 275 278 283 284 283 280 277 276 274 274 275 277 280 281 283 285 288 288 291 293 296 299 302 301 302 302 302 303 304 305 304
268 271 272 276 273 267 263 260 261 263 267 268 271 274 276 281 283 283 284 279 277 276 277 279 280 282 284 287 288 288 290 293 295 296 299 302 302 304 305 304 304 306 309 310
273 274 277 282 284 275 271 268 265 264 265 267 270 276 279 281 281 282 284 283 277 277 278 280 283 285 288 291 293 292 294 296 296 297 299 303 306 307 307 307 308 308 310 312
268 272 275 276 277 278 275 271 268 266 267 270 273 275 277 279 279 280 281 283 282 280 280 281 282 286 289 292 293 294 298 299 299 299 302 306 309 310 310 311 313 312 311 313
269 274 274 275 275 278 277 275 272 268 267 270 272 274 277 279 281 279 278 281 282 282 281 281 282 285 290 292 292 294 298 299 301 302 304 306 308 311 313 315 317 315 314 316
270 275 277 277 276 276 279 277 274 272 272 272 275 276 278 280 281 279 277 279 279 279 278 279 280 283 288 292 292 293 298 301 303 305 306 307 310 314 316 318 320 320 319 320
269 273 277 279 279 279 281 284 278 277 277 279 280 282 282 282 280 279 278 278 279 277 276 273 277 282 289 294 296 296 302 305 306 308 309 312 313 317 320 322 323 324 323 322
267 269 275 278 278 280 285 284 280 279 281 282 283 284 285 285 282 280 279 279 278 276 274 276 279 283 287 293 295 297 301 305 308 311 314 315 316 320 324 325 327 328 327 328
267 268 272 277 281 281 283 283 281 281 282 282 284 286 284 285 283 279 279 278 275 274 272 272 275 280 285 290 295 299 303 310 311 315 318 320 322 323 327 331 334 335 334 333
265 267 273 277 279 279 281 281 282 281 282 283 286 287 286 287 285 280 277 279 278 273 269 269 273 277 283 290 297 304 308 312 314 316 320 322 325 327 331 336 336 338 341 341
265 268 272 276 277 275 277 280 280 279 281 284 285 284 286 287 288 284 275 273 274 273 275 274 275 280 286 293 299 305 309 312 314 316 319 323 326 330 334 337 340 342 343 344
263 268 270 272 273 274 276 275 274 276 281 282 278 277 281 285 284 280 270 265 273 275 278 279 282 289 294 300 304 306 310 313 316 317 320 325 328 331 333 340 343 344 344 344
258 263 267 267 271 273 275 274 274 278 279 277 274 275 280 282 277 270 262 263 270 273 276 279 290 296 300 305 309 313 318 322 322 321 324 327 329 331 334 338 342 342 341 342
254 256 260 264 269 274 272 272 274 274 271 271 272 275 276 275 268 261 261 265 271 275 274 278 283 296 305 311 318 329 333 335 335 335 335 333 333 336 337 340 343 344 345 345
252 254 258 262 267 270 266 265 269 266 264 267 268 267 265 265 263 251 249 260 269 265 271 271 274 294 315 322 330 337 341 342 345 351 351 347 345 344 344 346 350 349 349 348
249 252 256 259 262 264 261 262 264 260 260 262 260 256 257 256 253 245 242 247 254 259 265 265 268 292 318 329 336 340 345 347 353 355 354 354 355 354 351 349 350 351 350 348